N738BJ KBKL-PHLI

Flight info

Callsign N738BJ
Flight time N/A
Altitude 34000
Route ZAAPA6 SNNOH VHP J80 MCI J24 SLN J102 RYLIE/N0448F360 J102 ALS J110 RSK J64 TBC J128 RUSTT J10 LAX C1316 DINTY/N0440F380 R576 DUSAC/N0443F400 R576 OGG V15 CKH V12 SHIGI V15 BOOKE NAPUA
Aircraft B738/M-SDE2E3FGHIRWXY/LB1

Departure

Time N/A
Airport Burke Lakefront Airport (KBKL)

Arrival

Time 2026-04-16 13:24
Airport Lihue Airport (PHLI)
Time Latitude Longitude Altitude Speed Heading
2026-04-16 12:03 23.02432 -152.57732 39768 ft 379 kts 242°
2026-04-16 12:03 23.01126 -152.60347 39948 ft 379 kts 242°
2026-04-16 12:03 22.99863 -152.62864 40062 ft 380 kts 242°
2026-04-16 12:04 22.97329 -152.67910 40101 ft 381 kts 242°
2026-04-16 12:04 22.94792 -152.72958 40113 ft 380 kts 242°
2026-04-16 12:05 22.92283 -152.77948 40111 ft 379 kts 242°
2026-04-16 12:05 22.89759 -152.82967 40108 ft 379 kts 242°
2026-04-16 12:06 22.87231 -152.87986 40114 ft 379 kts 242°
2026-04-16 12:06 22.84704 -152.93000 40112 ft 379 kts 242°
2026-04-16 12:07 22.82174 -152.98014 40111 ft 379 kts 242°
2026-04-16 12:07 22.79640 -153.03031 40112 ft 379 kts 242°
2026-04-16 12:08 22.77105 -153.08046 40111 ft 380 kts 242°
2026-04-16 12:08 22.74563 -153.13069 40109 ft 380 kts 242°
2026-04-16 12:09 22.72019 -153.18092 40113 ft 381 kts 242°
2026-04-16 12:09 22.69468 -153.23123 40111 ft 381 kts 242°
2026-04-16 12:10 22.66929 -153.28125 40111 ft 382 kts 242°
2026-04-16 12:10 22.64369 -153.33164 40110 ft 382 kts 242°
2026-04-16 12:11 22.61806 -153.38204 40110 ft 382 kts 242°
2026-04-16 12:11 22.59237 -153.43250 40109 ft 383 kts 242°
2026-04-16 12:12 22.56666 -153.48296 40110 ft 383 kts 242°
2026-04-16 12:12 22.54089 -153.53349 40112 ft 383 kts 242°
2026-04-16 12:13 22.51510 -153.58401 40111 ft 383 kts 242°
2026-04-16 12:13 22.48930 -153.63450 40109 ft 384 kts 242°
2026-04-16 12:14 22.46348 -153.68496 40110 ft 384 kts 242°
2026-04-16 12:14 22.43778 -153.73516 40108 ft 384 kts 242°
2026-04-16 12:15 22.41191 -153.78565 40112 ft 384 kts 242°
2026-04-16 12:15 22.38600 -153.83617 40111 ft 384 kts 242°
2026-04-16 12:16 22.36078 -153.88702 40106 ft 384 kts 247°
2026-04-16 12:16 22.34262 -153.94136 40106 ft 384 kts 250°
2026-04-16 12:17 22.32474 -153.99579 40110 ft 385 kts 250°
2026-04-16 12:17 22.30665 -154.05015 40110 ft 385 kts 250°
2026-04-16 12:18 22.28832 -154.10448 40089 ft 385 kts 247°
2026-04-16 12:18 22.26217 -154.15484 40091 ft 385 kts 238°
2026-04-16 12:19 22.23326 -154.20356 40086 ft 385 kts 239°
2026-04-16 12:19 22.20461 -154.25215 40083 ft 385 kts 239°
2026-04-16 12:20 22.17590 -154.30101 40083 ft 385 kts 239°
2026-04-16 12:20 22.14725 -154.34977 40083 ft 385 kts 239°
2026-04-16 12:21 22.11857 -154.39855 40082 ft 385 kts 239°
2026-04-16 12:21 22.08992 -154.44724 40084 ft 384 kts 239°
2026-04-16 12:22 22.06122 -154.49596 40082 ft 384 kts 239°
2026-04-16 12:22 22.03253 -154.54463 40084 ft 384 kts 239°
2026-04-16 12:23 22.00407 -154.59285 40085 ft 384 kts 238°
2026-04-16 12:23 21.97542 -154.64137 40080 ft 384 kts 238°
2026-04-16 12:24 21.94675 -154.68987 40084 ft 384 kts 238°
2026-04-16 12:24 21.91798 -154.73850 40084 ft 385 kts 238°
2026-04-16 12:25 21.88919 -154.78712 40084 ft 385 kts 238°
2026-04-16 12:25 21.86037 -154.83576 40084 ft 386 kts 238°
2026-04-16 12:26 21.83147 -154.88449 40084 ft 386 kts 238°
2026-04-16 12:26 21.80254 -154.93319 40083 ft 386 kts 238°
2026-04-16 12:27 21.77354 -154.98187 40084 ft 387 kts 238°
2026-04-16 12:27 21.74465 -155.03033 40083 ft 387 kts 238°
2026-04-16 12:28 21.71541 -155.07935 40086 ft 387 kts 238°
2026-04-16 12:28 21.68635 -155.12804 40093 ft 387 kts 238°
2026-04-16 12:29 21.65748 -155.17638 40092 ft 387 kts 238°
2026-04-16 12:29 21.62843 -155.22497 40093 ft 386 kts 238°
2026-04-16 12:30 21.59936 -155.27354 40092 ft 386 kts 238°
2026-04-16 12:30 21.57033 -155.32201 40092 ft 385 kts 238°
2026-04-16 12:31 21.54132 -155.37041 40093 ft 385 kts 237°
2026-04-16 12:31 21.51232 -155.41875 40092 ft 385 kts 237°
2026-04-16 12:32 21.48336 -155.46697 40092 ft 384 kts 237°
2026-04-16 12:32 21.45442 -155.51513 40092 ft 384 kts 237°
2026-04-16 12:33 21.43033 -155.55519 40090 ft 384 kts 237°
2026-04-16 12:33 21.40142 -155.60322 40139 ft 382 kts 237°
2026-04-16 12:34 21.37251 -155.65122 40146 ft 383 kts 237°
2026-04-16 12:34 21.34358 -155.69920 40149 ft 383 kts 237°
2026-04-16 12:35 21.31462 -155.74722 40141 ft 384 kts 237°
2026-04-16 12:35 21.28554 -155.79543 40139 ft 385 kts 237°
2026-04-16 12:36 21.25642 -155.84366 40133 ft 386 kts 237°
2026-04-16 12:36 21.22720 -155.89202 40129 ft 387 kts 237°
2026-04-16 12:37 21.19793 -155.94043 40120 ft 387 kts 237°
2026-04-16 12:37 21.16881 -155.98854 40121 ft 387 kts 237°
2026-04-16 12:38 21.13928 -156.03730 40109 ft 388 kts 237°
2026-04-16 12:38 21.11009 -156.08543 40098 ft 388 kts 237°
2026-04-16 12:39 21.08073 -156.13382 40086 ft 387 kts 237°
2026-04-16 12:39 21.05139 -156.18214 40079 ft 387 kts 237°
2026-04-16 12:40 21.02206 -156.23041 40084 ft 386 kts 237°
2026-04-16 12:40 20.99275 -156.27859 40083 ft 386 kts 237°
2026-04-16 12:41 20.96346 -156.32672 40082 ft 385 kts 237°
2026-04-16 12:41 20.93420 -156.37472 40083 ft 385 kts 237°
2026-04-16 12:42 20.92238 -156.40037 40074 ft 386 kts 252°
2026-04-16 12:42 20.91761 -156.42871 40080 ft 390 kts 263°
2026-04-16 12:42 20.91832 -156.45783 40084 ft 396 kts 275°
2026-04-16 12:42 20.92541 -156.48658 40099 ft 402 kts 282°
2026-04-16 12:43 20.94389 -156.54325 40080 ft 404 kts 283°
2026-04-16 12:43 20.96225 -156.59963 40094 ft 403 kts 283°
2026-04-16 12:44 20.98021 -156.65652 40098 ft 404 kts 282°
2026-04-16 12:44 20.99808 -156.71361 40101 ft 405 kts 282°
2026-04-16 12:45 21.01415 -156.76543 40112 ft 405 kts 282°
2026-04-16 12:50 21.02882 -156.81285 40111 ft 405 kts 282°
2026-04-16 12:51 21.04652 -156.87009 40120 ft 405 kts 282°
2026-04-16 12:51 21.06421 -156.92736 40119 ft 405 kts 282°
2026-04-16 12:52 21.07308 -156.95615 39795 ft 411 kts 282°
2026-04-16 12:52 21.08205 -156.98519 39357 ft 410 kts 282°
2026-04-16 12:52 21.09100 -157.01419 38834 ft 408 kts 281°
2026-04-16 12:52 21.09989 -157.04302 38257 ft 408 kts 281°
2026-04-16 12:53 21.10875 -157.07180 37773 ft 405 kts 281°
2026-04-16 12:53 21.11754 -157.10033 37362 ft 401 kts 281°
2026-04-16 12:53 21.12625 -157.12862 36946 ft 397 kts 281°
2026-04-16 12:53 21.13483 -157.15653 36547 ft 393 kts 281°
2026-04-16 12:54 21.14265 -157.18401 36153 ft 387 kts 278°
2026-04-16 12:54 21.14913 -157.21172 35737 ft 382 kts 276°
2026-04-16 12:54 21.15509 -157.23936 35326 ft 379 kts 276°
2026-04-16 12:54 21.16099 -157.26681 34921 ft 377 kts 276°
2026-04-16 12:55 21.16695 -157.29409 34518 ft 375 kts 276°
2026-04-16 12:55 21.17298 -157.32114 34124 ft 372 kts 277°
2026-04-16 12:55 21.17903 -157.34811 33724 ft 370 kts 277°
2026-04-16 12:55 21.18506 -157.37485 33328 ft 368 kts 277°
2026-04-16 12:56 21.19105 -157.40140 32939 ft 366 kts 277°
2026-04-16 12:56 21.19708 -157.42788 32547 ft 364 kts 277°
2026-04-16 12:56 21.20344 -157.45411 32155 ft 363 kts 278°
2026-04-16 12:56 21.20993 -157.48015 31761 ft 361 kts 278°
2026-04-16 12:57 21.21642 -157.50611 31378 ft 360 kts 278°
2026-04-16 12:57 21.22300 -157.53191 31006 ft 358 kts 278°
2026-04-16 12:57 21.22937 -157.55759 30619 ft 356 kts 278°
2026-04-16 12:57 21.23555 -157.58288 30243 ft 354 kts 278°
2026-04-16 12:58 21.24185 -157.60865 29862 ft 352 kts 278°
2026-04-16 12:58 21.24797 -157.63361 29490 ft 349 kts 278°
2026-04-16 12:58 21.25413 -157.65869 29096 ft 347 kts 279°
2026-04-16 12:58 21.26035 -157.68399 28703 ft 345 kts 279°
2026-04-16 12:59 21.26624 -157.70849 28319 ft 342 kts 277°
2026-04-16 12:59 21.27127 -157.73334 27923 ft 340 kts 276°
2026-04-16 12:59 21.27586 -157.75811 27530 ft 338 kts 276°
2026-04-16 13:00 21.28491 -157.80736 26764 ft 335 kts 276°
2026-04-16 13:00 21.28948 -157.83177 26383 ft 333 kts 276°
2026-04-16 13:00 21.29403 -157.85594 26011 ft 331 kts 277°
2026-04-16 13:00 21.29858 -157.88008 25630 ft 329 kts 277°
2026-04-16 13:01 21.30311 -157.90405 25263 ft 327 kts 277°
2026-04-16 13:01 21.30725 -157.92791 24882 ft 324 kts 273°
2026-04-16 13:01 21.30816 -157.95188 24449 ft 321 kts 266°
2026-04-16 13:01 21.30766 -157.97570 24078 ft 319 kts 266°
2026-04-16 13:02 21.30709 -157.99943 23701 ft 317 kts 266°
2026-04-16 13:02 21.30660 -158.02272 23338 ft 316 kts 266°
2026-04-16 13:02 21.30615 -158.04614 22979 ft 313 kts 266°
2026-04-16 13:02 21.30574 -158.06942 22622 ft 311 kts 266°
2026-04-16 13:03 21.30535 -158.09258 22267 ft 310 kts 266°
2026-04-16 13:03 21.30497 -158.11561 21913 ft 308 kts 266°
2026-04-16 13:03 21.30458 -158.13848 21561 ft 306 kts 266°
2026-04-16 13:03 21.30619 -158.16125 21199 ft 308 kts 278°
2026-04-16 13:04 21.31207 -158.18335 20868 ft 309 kts 286°
2026-04-16 13:04 21.32173 -158.20407 20525 ft 312 kts 296°
2026-04-16 13:04 21.33305 -158.22383 20187 ft 310 kts 297°
2026-04-16 13:04 21.34448 -158.24342 19843 ft 309 kts 297°
2026-04-16 13:05 21.35584 -158.26294 19502 ft 307 kts 296°
2026-04-16 13:05 21.36710 -158.28238 19160 ft 306 kts 297°
2026-04-16 13:05 21.37825 -158.30173 18831 ft 304 kts 296°
2026-04-16 13:05 21.38932 -158.32101 18486 ft 303 kts 296°
2026-04-16 13:06 21.40034 -158.34025 18147 ft 302 kts 296°
2026-04-16 13:06 21.41128 -158.35939 17813 ft 300 kts 296°
2026-04-16 13:06 21.42217 -158.37845 17478 ft 299 kts 296°
2026-04-16 13:06 21.43287 -158.39718 17153 ft 298 kts 296°
2026-04-16 13:07 21.44369 -158.41611 16819 ft 296 kts 297°
2026-04-16 13:07 21.45443 -158.43494 16489 ft 295 kts 297°
2026-04-16 13:07 21.46478 -158.45388 16153 ft 292 kts 292°
2026-04-16 13:07 21.47270 -158.47382 15831 ft 289 kts 287°
2026-04-16 13:08 21.47960 -158.49400 15506 ft 287 kts 286°
2026-04-16 13:08 21.48627 -158.51419 15175 ft 286 kts 286°
2026-04-16 13:08 21.49294 -158.53430 14850 ft 285 kts 286°
2026-04-16 13:08 21.49963 -158.55429 14535 ft 284 kts 287°
2026-04-16 13:09 21.50635 -158.57416 14215 ft 283 kts 287°
2026-04-16 13:09 21.51309 -158.59395 13895 ft 282 kts 287°
2026-04-16 13:09 21.51983 -158.61366 13578 ft 281 kts 287°
2026-04-16 13:09 21.52657 -158.63330 13257 ft 280 kts 287°
2026-04-16 13:10 21.53331 -158.65289 12935 ft 279 kts 287°
2026-04-16 13:10 21.54003 -158.67243 12622 ft 278 kts 288°
2026-04-16 13:10 21.54674 -158.69190 12300 ft 278 kts 288°
2026-04-16 13:10 21.55343 -158.71131 11977 ft 277 kts 288°
2026-04-16 13:11 21.56011 -158.73072 11669 ft 276 kts 288°
2026-04-16 13:11 21.56675 -158.74999 11344 ft 275 kts 288°
2026-04-16 13:11 21.57330 -158.76903 11045 ft 275 kts 288°
2026-04-16 13:11 21.57992 -158.78826 10712 ft 275 kts 289°
2026-04-16 13:12 21.58658 -158.80763 10322 ft 277 kts 289°
2026-04-16 13:12 21.59325 -158.82702 10094 ft 273 kts 289°
2026-04-16 13:12 21.59977 -158.84596 9848 ft 270 kts 290°
2026-04-16 13:12 21.60628 -158.86491 9554 ft 269 kts 290°
2026-04-16 13:13 21.61275 -158.88375 9261 ft 269 kts 290°
2026-04-16 13:13 21.61923 -158.90262 8968 ft 269 kts 290°
2026-04-16 13:13 21.62568 -158.92141 8667 ft 268 kts 290°
2026-04-16 13:13 21.63214 -158.94022 8370 ft 268 kts 290°
2026-04-16 13:14 21.63855 -158.95894 8075 ft 267 kts 290°
2026-04-16 13:14 21.64498 -158.97771 7776 ft 266 kts 290°
2026-04-16 13:14 21.65138 -158.99638 7484 ft 266 kts 290°
2026-04-16 13:14 21.65777 -159.01502 7190 ft 265 kts 290°
2026-04-16 13:15 21.66412 -159.03359 6897 ft 265 kts 291°
2026-04-16 13:15 21.67050 -159.05220 6604 ft 265 kts 291°
2026-04-16 13:15 21.67685 -159.07074 6313 ft 264 kts 290°
2026-04-16 13:15 21.68319 -159.08930 6020 ft 264 kts 290°
2026-04-16 13:16 21.68952 -159.10779 5727 ft 264 kts 290°
2026-04-16 13:16 21.69585 -159.12630 5434 ft 263 kts 291°
2026-04-16 13:16 21.70215 -159.14474 5154 ft 263 kts 291°
2026-04-16 13:16 21.70842 -159.16309 4862 ft 259 kts 290°
2026-04-16 13:17 21.71454 -159.18103 4579 ft 251 kts 291°
2026-04-16 13:17 21.72047 -159.19842 4310 ft 244 kts 291°
2026-04-16 13:17 21.72622 -159.21527 4083 ft 235 kts 290°
2026-04-16 13:17 21.73170 -159.23123 3969 ft 221 kts 291°
2026-04-16 13:18 21.73686 -159.24607 3913 ft 207 kts 297°
2026-04-16 13:18 21.74426 -159.25877 3886 ft 190 kts 305°
2026-04-16 13:18 21.75129 -159.27044 3842 ft 187 kts 304°
2026-04-16 13:18 21.75826 -159.28230 3787 ft 187 kts 304°
2026-04-16 13:19 21.76525 -159.29417 3720 ft 188 kts 303°
2026-04-16 13:19 21.77223 -159.30604 3631 ft 189 kts 303°
2026-04-16 13:19 21.77932 -159.31811 3444 ft 190 kts 303°
2026-04-16 13:19 21.78663 -159.32984 3236 ft 187 kts 314°
2026-04-16 13:20 21.79777 -159.33553 3041 ft 179 kts
2026-04-16 13:20 21.81047 -159.33559 2982 ft 185 kts
2026-04-16 13:20 21.82332 -159.33586 2820 ft 186 kts
2026-04-16 13:20 21.83609 -159.33593 2580 ft 183 kts
2026-04-16 13:21 21.84871 -159.33593 2339 ft 178 kts
2026-04-16 13:21 21.86085 -159.33591 2107 ft 170 kts
2026-04-16 13:21 21.87231 -159.33590 1891 ft 160 kts
2026-04-16 13:21 21.88303 -159.33591 1719 ft 151 kts
2026-04-16 13:22 21.89331 -159.33591 1505 ft 148 kts 360°
2026-04-16 13:22 21.90357 -159.33591 1303 ft 148 kts 359°
2026-04-16 13:22 21.91372 -159.33590 1114 ft 145 kts 358°
2026-04-16 13:22 21.92350 -159.33589 912 ft 137 kts 358°
2026-04-16 13:23 21.93292 -159.33589 735 ft 135 kts 358°
2026-04-16 13:23 21.94230 -159.33589 562 ft 135 kts 358°
2026-04-16 13:23 21.95166 -159.33599 400 ft 134 kts 357°
2026-04-16 13:23 21.95778 -159.33601 269 ft 132 kts 359°
2026-04-16 13:24 21.96689 -159.33593 114 ft 125 kts 359°
2026-04-16 13:24 21.97438 -159.33591 98 ft 87 kts 359°
2026-04-16 13:24 21.97754 -159.33598 103 ft 20 kts 335°
2026-04-16 13:24 21.97872 -159.33666 102 ft 19 kts 329°
2026-04-16 13:25 21.97994 -159.33709 104 ft 18 kts 358°
2026-04-16 13:25 21.98119 -159.33712 103 ft 18 kts
2026-04-16 13:25 21.98240 -159.33711 103 ft 17 kts
2026-04-16 13:25 21.98329 -159.33731 101 ft 13 kts 325°
2026-04-16 13:26 21.98396 -159.33793 102 ft 13 kts 317°
2026-04-16 13:26 21.98456 -159.33860 102 ft 12 kts 316°
2026-04-16 13:26 21.98503 -159.33936 102 ft 13 kts 274°
2026-04-16 13:26 21.98491 -159.34001 105 ft 1 kts 238°
2026-04-16 13:27 21.98489 -159.34002 105 ft 0 kts 227°